Orbital Elements at Epoch 2459200.5 (2020-Dec-17.0) TDB
Reference: JPL 31 (heliocentric ecliptic J2000)
Element | Value | Uncertainty (1-sigma) | Units |
e | .1194739049510606 | 4.4486e-08 | |
a | 1.932834253503454 | 6.2176e-09 | au |
q | 1.701910997614228 | 8.4834e-08 | au |
i | 17.86160806116627 | 4.2704e-06 | deg |
node | 327.3441940347915 | 8.8209e-06 | deg |
peri | 357.0225627564295 | 1.5155e-05 | deg |
M | 127.8276194763798 | 1.431e-05 | deg |
tp | 2458851.992163871313 (2020-Jan-03.49216387) | 3.7925e-05 | TDB |
period | 981.5000977117505 2.69 | 4.736e-06 1.297e-08 | d yr |
n | .36678549583367 | 1.7698e-09 | deg/d |
Q | 2.16375750939268 | 6.9604e-09 | au |
|
| | Orbit Determination Parameters
Additional Information
|